Weather History for Kalamazoo, MI

Change the Weather History Date:

Sunday, December 15, 2013

  Actual Average Record
Temperature  
Mean Temperature 22 °F 29 °F  
Max Temperature 26 °F 35 °F 62 °F (1975)
Min Temperature 18 °F 23 °F 1 °F (1958)
Degree Days  
Heating Degree Days 43 36  
Month to date heating degree days 580 508  
Since 1 July heating degree days 1937 1835  
Cooling Degree Days 0 0  
Month to date cooling degree days 0 0  
Year to date cooling degree days 725 675  
Moisture  
Dew Point 14 °F    
Average Humidity 76    
Maximum Humidity 84    
Minimum Humidity 67    
Precipitation  
Precipitation T in 0.06 in 1.29 in (1948)
Month to date precipitation 0.34 1.09  
Year to date precipitation 38.31 34.85  
Sea Level Pressure  
Sea Level Pressure 29.93 in    
Wind  
Wind Speed 9 mph (West)    
Max Wind Speed 20 mph    
Max Gust Speed 28 mph    
Visibility 5 miles    
Events Snow    
T = Trace of Precipitation, MM = Missing Value Source: NWS Daily Summary

Daily Weather History Graph

Daily Weather History Graph

Search for Another Location

Airport:

Trip Planner

Search our weather history database for the weather conditions in past years. The results will help you decide how hot, cold, wet, or windy it might be!

Date:

Astronomy

Dec. 15, 2013 Rise Set
Actual Time 8:04 AM EST 5:10 PM EST
Civil Twilight 7:32 AM EST 5:42 PM EST
Nautical Twilight 6:56 AM EST 6:18 PM EST
Astronomical Twilight 6:22 AM EST 6:52 PM EST
Moon 4:15 PM EST (12/15) 6:18 AM EST (12/15)
Length of Visible Light 10h 10m
Length of Day
9h 06m
Waxing Gibbous, 97% of the Moon is Illuminated
Dec 15
Waxing Gibbous
Dec 17
Full
Dec 25
Last Quarter
Jan 1
New
Jan 7
First Quarter

Hourly Weather History & Observations

Time (EST) Temp. Windchill Dew Point Humidity Pressure Visibility Wind Dir Wind Speed Gust Speed Precip Events Conditions
12:53 AM 19.0 °F 10.0 °F 15.1 °F 85% 29.92 in 10.0 mi WNW 6.9 mph - N/A   Overcast
1:53 AM 19.9 °F 13.4 °F 16.0 °F 85% 29.91 in 10.0 mi NW 4.6 mph - N/A   Overcast
2:53 AM 19.9 °F - 16.0 °F 85% 29.90 in 10.0 mi Calm Calm - N/A   Overcast
3:10 AM 19.4 °F - 15.8 °F 86% 29.85 in 10.0 mi Calm Calm - N/A   Overcast
3:53 AM 19.9 °F - 16.0 °F 85% 29.90 in 9.0 mi Calm Calm - N/A   Overcast
4:27 AM 21.2 °F 12.6 °F 15.8 °F 80% 29.85 in 7.0 mi SW 6.9 mph - 0.00 in Snow Light Snow
4:34 AM 21.2 °F 12.6 °F 15.8 °F 80% 29.85 in 6.0 mi SW 6.9 mph - 0.00 in Snow Light Snow
4:53 AM 21.0 °F 13.4 °F 17.1 °F 85% 29.89 in 5.0 mi SW 5.8 mph - 0.00 in Snow Light Snow
5:53 AM 21.9 °F 12.5 °F 18.0 °F 85% 29.88 in 4.0 mi SSW 8.1 mph - 0.00 in Snow Light Snow
6:53 AM 24.1 °F 16.0 °F 19.9 °F 84% 29.88 in 7.0 mi WSW 6.9 mph - 0.00 in Snow Light Snow
7:50 AM 24.8 °F 15.3 °F 19.4 °F 80% 29.84 in 6.0 mi WSW 9.2 mph - 0.00 in Snow Light Snow
7:53 AM 25.0 °F 13.6 °F 19.9 °F 81% 29.88 in 3.0 mi WSW 12.7 mph - 0.00 in Snow Light Snow
8:53 AM 25.0 °F 13.6 °F 19.0 °F 78% 29.89 in 3.0 mi WSW 12.7 mph 21.9 mph 0.00 in Snow Light Snow
9:33 AM 24.8 °F 11.9 °F 17.6 °F 74% 29.86 in 1.2 mi West 16.1 mph 20.7 mph 0.00 in Snow Light Snow
9:53 AM 23.0 °F 9.2 °F 18.0 °F 81% 29.91 in 1.2 mi WNW 17.3 mph 27.6 mph 0.00 in Snow Light Snow
10:53 AM 21.0 °F 8.1 °F 16.0 °F 81% 29.93 in 1.0 mi WNW 13.8 mph 20.7 mph 0.00 in Snow Light Snow
11:53 AM 21.0 °F 11.4 °F 16.0 °F 81% 29.93 in 1.2 mi West 8.1 mph - 0.00 in Snow Light Snow
12:31 PM 21.2 °F 8.3 °F 15.8 °F 80% 29.87 in 2.0 mi WNW 13.8 mph - 0.00 in Snow Light Snow
12:48 PM 21.2 °F 10.9 °F 15.8 °F 80% 29.87 in 1.5 mi West 9.2 mph - 0.00 in Snow Light Snow
12:53 PM 21.0 °F 8.6 °F 16.0 °F 81% 29.91 in 0.8 mi West 12.7 mph - 0.00 in Snow Light Snow
1:53 PM 19.9 °F 6.2 °F 15.1 °F 81% 29.93 in 0.8 mi West 15.0 mph 19.6 mph 0.00 in Snow Light Snow
1:58 PM 19.4 °F 4.5 °F 15.8 °F 86% 29.88 in 1.0 mi West 17.3 mph 20.7 mph 0.00 in Snow Light Snow
2:53 PM 19.9 °F 7.9 °F 12.9 °F 74% 29.94 in 1.0 mi West 11.5 mph 21.9 mph 0.00 in Snow Light Snow
3:21 PM 19.4 °F 5.0 °F 10.4 °F 68% 29.90 in 1.0 mi WNW 16.1 mph - 0.00 in Snow Light Snow
3:53 PM 19.9 °F 7.9 °F 10.9 °F 68% 29.96 in 1.0 mi West 11.5 mph 24.2 mph 0.00 in Snow Light Snow
4:00 PM 19.4 °F 6.0 °F 10.4 °F 68% 29.92 in 2.0 mi West 13.8 mph - 0.00 in Snow Light Snow
4:53 PM 19.0 °F 5.6 °F 12.0 °F 74% 29.99 in 1.0 mi West 13.8 mph - 0.00 in Snow Light Snow
5:00 PM 19.4 °F 6.0 °F 12.2 °F 74% 29.94 in 2.0 mi West 13.8 mph - 0.00 in Snow Light Snow
5:53 PM 19.0 °F 6.8 °F 10.0 °F 68% 29.99 in 10.0 mi West 11.5 mph - 0.00 in   Overcast
6:53 PM 19.0 °F 7.5 °F 10.0 °F 68% 30.01 in 8.0 mi West 10.4 mph - 0.00 in Snow Light Snow
7:50 PM 19.4 °F 10.4 °F 10.4 °F 68% 29.98 in 6.0 mi WNW 6.9 mph - 0.00 in Snow Light Snow
7:53 PM 19.0 °F 9.0 °F 10.9 °F 71% 30.03 in 7.0 mi WNW 8.1 mph - 0.00 in Snow Light Snow
8:03 PM 19.4 °F 12.8 °F 10.4 °F 68% 29.99 in 8.0 mi West 4.6 mph - 0.00 in Snow Light Snow
8:53 PM 19.0 °F 7.5 °F 10.0 °F 68% 30.05 in 9.0 mi West 10.4 mph - 0.00 in   Overcast
9:53 PM 19.0 °F 9.0 °F 10.0 °F 68% 30.06 in 9.0 mi WNW 8.1 mph - 0.00 in Snow Light Snow
10:53 PM 18.0 °F 9.8 °F 10.9 °F 74% 30.07 in 5.0 mi NW 5.8 mph - 0.00 in Snow Light Snow
11:53 PM 18.0 °F 9.8 °F 10.9 °F 74% 30.08 in 7.0 mi NW 5.8 mph - 0.00 in Snow Light Snow